Погода в Баеве

Россия / Алтайский край     53°16′00″N   80°46′27″E
темп.,
°C
ветер,
м/с
пор.,
м/с
влажн.,
%
обл.,
%
осадки,
мм/ч
давл.,
гПа
погр.,
м
20 января, ср
ср2001:00−25ссв129662 0.0 102620
04:00−26всв239332 0.0 102719
07:00−26всв349459 0.0 102843
10:00−24всв3394100 0.0 102763
13:00−22всв4693100 0.0 1028171
16:00−21всв4892100 0.0 1027200
19:00−21в599098 0.0 1026185
22:00−19в4889100 0.0 1023253
21 января, чт
чт2101:00−15вюв3694100 0.0 1021239
04:00−13ююв2296100 0.4 101974
07:00−12юз3796100 0.4 1020198
10:00−13зюз41096100 0.1 1020256
13:00−14зюз4894100 0.1 1021303
16:00−15юз349694 0.0 1019121
19:00−17ююз229697 0.0 101820
22:00−15зсз0194100 0.0 101520
22 января, пт
пт2201:00−14всв2295100 0.1 101383
04:00−14с1196100 1.3 101166
07:00−13сз2396100 2.3 1009146
10:00−14зсз2596100 0.6 1010201
13:00−15зсз4592100 0.6 1013311
16:00−16зсз4692100 0.0 1015340
19:00−21з3495100 0.0 101883
22:00−26з449686 0.0 102278
23 января, сб
сб2301:00−28юз469868 0.0 1025102
04:00−26юз4897100 0.0 1027213
07:00−24юз4897100 0.1 1028315
10:00−22ююз4997100 0.2 1030356
13:00−19юз5992100 0.3 1031590
16:00−17юз4892100 0.1 1031721
19:00−19зюз2598100 0.1 1031153
22:00−20з2299100 0.1 103237
24 января, вс
вс2401:00−21з2399100 0.3 103374
04:00−23з3399100 0.1 103478
07:00−25зсз3698100 0.3 1036207
10:00−29зсз469699 0.1 1040147
13:00−32з469486 0.1 1043221
16:00−33з46932 0.0 1045297
19:00−37зюз34952 0.0 104841
22:00−39зюз23975 0.0 105018